x

Portage Canal, Mi (pclm4) Weather Station

2:40pm - Wed 28th Jun 2017 All times are CDT. -5 hours from GMT.

  • Wind
    6mph, 10mph gusts
  • Air Temp 68°f
  • Sea Pressure 1006.4mb
  • Portage Canal, Mi
  • Portage Canal, Mi

More Historic Weather Station data

Upgrade to MSW Pro to gain access to the past 30 days of data for over 8000 Wavebouys and Weather Stations around the globe.

Join Pro

Comparision Forecast

View Surf forecast
   
Wed 06/28 2:40pm 6 10 mph 1006.4mb 68f
2:30pm 5 9 mph 1006.4mb 69f
2:20pm 2 7 mph 1006.4mb 69f
2:10pm 2 8 mph 1006.4mb 69f
2:00pm 2 5 mph 1006.4mb 70f
1:40pm 3 9 mph 1006.4mb 70f
1:30pm 3 9 mph 1006.4mb 69f
1:20pm 2 7 mph 1006.8mb 70f
1:10pm 5 9 mph 1006.8mb 70f
1:00pm 3 10 mph 1007.1mb 70f
12:40pm 3 10 mph 1006.8mb 71f
12:30pm 5 10 mph 1006.4mb 71f
12:20pm 5 13 mph 1006.4mb 70f
12:10pm 5 14 mph 1006.1mb 70f
12:00pm 6 15 mph 1006.4mb 70f
11:40am 5 14 mph 1006.4mb 69f
11:30am 6 17 mph 1006.8mb 69f
11:20am 5 16 mph 1007.1mb 69f
11:10am 5 10 mph 1007.5mb 68f
11:00am 6 14 mph 1007.5mb 68f
10:40am 6 15 mph 1007.8mb 68f
10:30am 3 13 mph 1007.8mb 69f
10:20am 5 14 mph 1007.8mb 69f
10:10am 7 14 mph 1008.1mb 69f
10:00am 5 14 mph 1008.5mb 69f
9:40am 6 13 mph 1008.8mb 68f
9:30am 7 18 mph 1008.8mb 68f
9:20am 5 11 mph 1008.8mb 68f
9:10am 5 14 mph 1008.8mb 68f
9:00am 5 13 mph 1009.1mb 69f
8:40am 5 13 mph 1009.1mb 68f
8:30am 7 15 mph 1009.5mb 68f
8:20am 6 13 mph 1009.5mb 68f
8:10am 3 13 mph 1009.5mb 68f
8:00am 6 13 mph 1009.5mb 67f
7:40am 5 9 mph 1009.5mb 66f
7:30am 5 9 mph 1009.8mb 66f
7:20am 5 11 mph 1009.8mb 66f
7:10am 3 10 mph 1009.8mb 65f
7:00am 3 11 mph 1009.8mb 64f
6:40am 5 13 mph 1009.8mb 65f
6:30am 6 11 mph 1010.2mb 64f
6:20am 5 10 mph 1010.5mb 64f
6:10am 5 11 mph 1010.5mb 63f
6:00am 6 14 mph 1010.8mb 63f
5:40am 7 11 mph 1010.8mb 62f
5:30am 5 10 mph 1010.8mb 62f
5:20am 5 10 mph 1010.8mb 61f
5:10am 3 10 mph 1010.5mb 61f
5:00am 5 11 mph 1010.2mb 61f
4:40am 5 9 mph 1010.2mb 61f
4:30am 5 10 mph 1010.2mb 61f
4:20am 6 10 mph 1009.8mb 61f
4:10am 3 9 mph 1009.8mb 62f
4:00am 3 8 mph 1009.8mb 62f
3:40am 5 10 mph 1009.8mb 63f
3:30am 5 11 mph 1010.2mb 63f
3:20am 5 8 mph 1010.2mb 63f
3:10am 5 9 mph 1010.5mb 63f
3:00am 6 11 mph 1010.5mb 63f
2:40am 7 13 mph 1010.8mb 64f
2:30am 7 14 mph 1010.8mb 64f
2:20am 6 14 mph 1010.8mb 64f
2:10am 7 13 mph 1011.2mb 64f
2:00am 6 11 mph 1011.2mb 64f
1:40am 6 11 mph 1011.2mb 64f
1:30am 7 13 mph 1011.2mb 64f
1:20am 6 11 mph 1011.2mb 63f
1:10am 6 10 mph 1011.5mb 63f
1:00am 6 11 mph 1011.5mb 63f
12:40am 5 9 mph 1011.5mb 63f
12:30am 5 10 mph 1011.5mb 61f
12:20am 5 7 mph 1011.5mb 61f
12:10am 5 9 mph 1011.5mb 62f
12:00am 5 9 mph 1011.9mb 62f
Tue 06/27 11:40pm 6 9 mph 1011.9mb 63f
11:30pm 5 9 mph 1011.9mb 63f
11:20pm 6 13 mph 1011.9mb 63f
11:10pm 3 8 mph 1011.5mb 64f
11:00pm 3 9 mph 1011.5mb 64f
10:40pm 3 7 mph 1011.5mb 62f
10:30pm 5 8 mph 1011.5mb 62f
10:20pm 3 8 mph 1011.5mb 62f
10:10pm 3 8 mph 1011.5mb 61f
10:00pm 3 7 mph 1011.5mb 60f
9:40pm 3 7 mph 1011.9mb 60f
9:30pm 3 6 mph 1011.9mb 60f
9:20pm 3 7 mph 1011.5mb 61f
9:10pm 3 6 mph 1011.5mb 61f
9:00pm 3 7 mph 1011.5mb 61f
8:40pm 3 6 mph 1011.5mb 61f
8:30pm 3 6 mph 1011.5mb 61f
8:20pm 3 5 mph 1011.5mb 61f
8:10pm 2 5 mph 1011.9mb 61f
8:00pm 2 5 mph 1011.5mb 62f
7:40pm 2 3 mph 1011.9mb 63f
7:30pm 2 3 mph 1011.9mb 64f
7:20pm 1 2 mph 1011.9mb 66f
7:10pm  -  2 mph 1011.9mb 70f
7:00pm 1 5 mph 1011.9mb 71f
6:40pm 3 5 mph 1012.2mb 70f
6:30pm 1 6 mph 1012.2mb 70f
6:20pm 3 6 mph 1012.5mb 70f
6:10pm 2 7 mph 1012.5mb 70f
6:00pm 3 8 mph 1012.5mb 70f
5:40pm 6 9 mph 1012.9mb 69f
5:30pm 5 9 mph 1012.9mb 69f
5:20pm 3 10 mph 1012.9mb 69f
5:10pm 5 9 mph 1013.2mb 68f
5:00pm 5 11 mph 1013.5mb 69f
4:40pm 3 9 mph 1013.5mb 69f
4:30pm 3 11 mph 1013.5mb 69f
4:20pm 5 10 mph 1013.5mb 68f
4:10pm 7 10 mph 1013.5mb 67f
4:00pm 6 10 mph 1013.5mb 67f
3:50pm 6 10 mph 1013.9mb 67f
3:40pm 6 10 mph 1013.9mb 67f
3:30pm 6 11 mph 1013.9mb 67f
3:20pm 6 11 mph 1013.9mb 67f
3:10pm 6 14 mph 1014.2mb 67f
3:00pm 6 14 mph 1014.2mb 67f
2:50pm 7 11 mph 1014.2mb 66f
2:40pm 6 11 mph 1014.6mb 65f
2:30pm 8 14 mph 1014.6mb 65f
2:20pm 6 10 mph 1014.6mb 65f
2:10pm 7 11 mph 1014.9mb 64f
2:00pm 3 8 mph 1014.9mb 64f
1:50pm 5 10 mph 1014.9mb 64f
12:40pm 5 11 mph 1015.9mb 61f
12:30pm 5 10 mph 1015.9mb 61f
12:20pm 3 8 mph 1015.9mb 62f
12:10pm 5 9 mph 1015.9mb 61f
12:00pm 5 8 mph 1015.9mb 62f
11:50am 6 9 mph 1016.3mb 62f
11:40am 5 9 mph 1016.3mb 61f
11:30am 3 9 mph 1016.3mb 61f
11:20am 6 10 mph 1016.6mb 60f
11:10am 6 11 mph 1016.6mb 60f
11:00am 6 10 mph 1016.6mb 61f
10:50am 5 10 mph 1016.9mb 60f
10:40am 5 13 mph 1016.9mb 60f
10:30am 5 11 mph 1016.9mb 60f
10:20am 5 14 mph 1016.9mb 60f
10:10am 5 11 mph 1016.9mb 60f
10:00am 5 10 mph 1016.9mb 60f
9:50am 5 10 mph 1017.3mb 60f
9:40am 6 11 mph 1016.9mb 61f
9:30am 5 9 mph 1016.9mb 60f
9:20am 5 8 mph 1016.9mb 60f
9:10am 2 7 mph 1016.9mb 60f
9:00am 3 8 mph 1016.9mb 60f
8:50am 1 6 mph 1016.9mb 61f
7:40am 5 9 mph 1016.9mb 54f
7:30am 5 7 mph 1016.9mb 53f
7:20am 5 6 mph 1016.9mb 53f
7:10am 3 7 mph 1016.9mb 52f
7:00am 3 6 mph 1016.6mb 51f
6:50am 2 5 mph 1016.6mb 50f
6:40am 3 6 mph 1016.6mb 50f
6:30am 2 7 mph 1016.9mb 50f
6:20am 3 7 mph 1016.9mb 50f
6:10am 3 7 mph 1016.6mb 49f
6:00am 3 7 mph 1016.6mb 49f
5:50am 3 7 mph 1016.6mb 49f
5:40am 3 7 mph 1016.6mb 48f
5:30am 3 6 mph 1016.6mb 48f
5:20am 3 7 mph 1016.6mb 48f
5:10am 3 7 mph 1016.3mb 47f
5:00am 3 7 mph 1016.3mb 47f
4:50am 5 7 mph 1016.3mb 47f
4:40am 5 7 mph 1016.6mb 47f
4:30am 3 7 mph 1016.6mb 48f
4:20am 3 8 mph 1016.3mb 48f
4:10am 5 9 mph 1016.3mb 48f
4:00am 3 7 mph 1016.3mb 48f
3:50am 5 8 mph 1015.9mb 49f
3:40am 3 7 mph 1015.9mb 48f
3:30am 3 7 mph 1015.9mb 48f
3:20am 3 7 mph 1015.9mb 48f
3:10am 3 6 mph 1015.9mb 48f
3:00am 5 6 mph 1015.9mb 48f
2:50am 3 7 mph 1015.9mb 49f
2:40am 5 7 mph 1016.3mb 48f
2:30am 3 6 mph 1015.9mb 48f
2:20am 3 6 mph 1015.9mb 48f
2:10am 3 6 mph 1015.9mb 48f
2:00am 3 6 mph 1015.9mb 48f
1:50am 3 6 mph 1016.3mb 49f
1:40am 3 7 mph 1016.3mb 49f
1:30am 3 6 mph 1016.3mb 49f
1:20am 3 6 mph 1016.3mb 49f
1:10am 3 6 mph 1016.3mb 49f
1:00am 3 6 mph 1016.3mb 49f
12:50am 3 6 mph 1016.3mb 49f
12:40am 3 6 mph 1016.3mb 49f
12:30am 2 6 mph 1016.3mb 49f
12:20am 3 6 mph 1016.3mb 49f
12:10am 3 6 mph 1016.3mb 49f
12:00am 3 5 mph 1016.3mb 49f
Mon 06/26 11:50pm 3 5 mph 1016.3mb 50f
11:40pm 2 5 mph 1016.3mb 50f
11:30pm 3 6 mph 1016.3mb 51f
11:20pm 3 7 mph 1016.3mb 51f
11:10pm 2 5 mph 1016.3mb 51f
11:00pm 2 8 mph 1016.3mb 51f
10:50pm 5 7 mph 1016.3mb 50f
10:40pm 3 8 mph 1016.3mb 50f
10:30pm 3 5 mph 1016.3mb 51f
10:20pm 3 6 mph 1016.3mb 51f
10:10pm 2 6 mph 1016.3mb 52f
10:00pm 5 10 mph 1016.6mb 54f
9:50pm 5 10 mph 1016.3mb 54f
9:40pm 6 8 mph 1016.3mb 53f
9:30pm 3 7 mph 1016.6mb 53f
9:20pm 5 8 mph 1016.3mb 53f
9:10pm 5 9 mph 1016.3mb 54f
9:00pm 5 8 mph 1016.3mb 54f
8:50pm 5 9 mph 1016.3mb 55f
8:40pm 5 9 mph 1016.3mb 55f
8:30pm 3 7 mph 1016.3mb 55f
8:20pm 3 7 mph 1016.3mb 55f
8:10pm 5 6 mph 1016.3mb 55f
8:00pm 5 7 mph 1016.3mb 56f
7:50pm 5 7 mph 1016.3mb 58f
7:40pm 6 10 mph 1016.3mb 58f
7:30pm 6 10 mph 1016.3mb 58f
7:20pm 7 11 mph 1016.3mb 57f
7:10pm 7 11 mph 1016.6mb 57f
7:00pm 8 13 mph 1016.6mb 56f
6:50pm 6 13 mph 1016.6mb 56f
6:40pm 6 13 mph 1016.6mb 56f
6:30pm 9 13 mph 1016.9mb 56f
6:20pm 7 11 mph 1016.9mb 56f
6:10pm 8 13 mph 1016.9mb 54f
6:00pm 9 14 mph 1017.3mb 55f
5:50pm 2 7 mph 1017.6mb 59f
5:40pm 5 11 mph 1017.6mb 62f
5:30pm 2 8 mph 1017.6mb 60f
5:20pm 2 7 mph 1017.3mb 62f
5:10pm 2 7 mph 1017.3mb 61f
5:00pm 5 10 mph 1017.3mb 59f
4:50pm 5 8 mph 1017.6mb 60f
4:40pm 3 11 mph 1017.6mb 60f
4:30pm 5 9 mph 1017.3mb 59f
4:20pm 5 9 mph 1017.6mb 60f
4:10pm 5 11 mph 1017.6mb 59f
4:00pm 6 13 mph 1017.6mb 59f
3:50pm 5 10 mph 1017.6mb 59f
3:40pm 7 14 mph 1017.6mb 58f
3:30pm 7 13 mph 1017.6mb 58f
3:20pm 5 15 mph 1017.6mb 57f
3:10pm 8 11 mph 1017.9mb 57f
3:00pm 6 15 mph 1017.9mb 56f
2:50pm 7 10 mph 1017.9mb 57f
2:40pm 5 13 mph 1018.3mb 57f
2:30pm 5 10 mph 1017.9mb 57f
2:20pm 7 14 mph 1018.3mb 56f
2:10pm 6 13 mph 1018.3mb 57f
2:00pm 5 8 mph 1018.3mb 58f
1:50pm 3 11 mph 1018.6mb 57f
12:40pm 3 8 mph 1018.6mb 55f
12:30pm 5 9 mph 1018.6mb 54f
12:20pm 2 10 mph 1018.6mb 57f
12:10pm 2 9 mph 1018.6mb 55f
12:00pm 5 9 mph 1018.6mb 54f
11:50am 2 7 mph 1018.6mb 53f
11:40am 1 6 mph 1019mb 53f
11:30am 2 7 mph 1019mb 52f
11:20am 2 6 mph 1019mb 51f
11:10am 1 6 mph 1019mb 50f
11:00am 2 6 mph 1018.6mb 51f
10:50am 3 6 mph 1018.6mb 51f
10:40am  -  3 mph 1018.6mb 49f
10:30am 2 3 mph 1018.6mb 49f
10:20am 2 3 mph 1018.3mb 48f
10:10am 1 2 mph 1018.3mb 48f
10:00am  -  2 mph 1018.3mb 47f
9:50am  -  2 mph 1018.6mb 47f
9:40am 2 5 mph 1018.6mb 47f
9:30am 2 6 mph 1018.6mb 46f
9:20am 5 7 mph 1018.6mb 46f
9:10am 5 7 mph 1018.3mb 46f
9:00am 2 7 mph 1018.3mb 47f
8:50am 1 5 mph 1018.3mb 47f
8:40am 3 6 mph 1017.9mb 46f
8:30am 2 6 mph 1017.9mb 46f
8:20am 2 7 mph 1017.6mb 46f
8:10am 3 7 mph 1017.6mb 47f
8:00am 5 9 mph 1017.6mb 48f
7:50am 5 7 mph 1017.3mb 49f
7:40am 5 7 mph 1016.9mb 49f
7:30am 3 5 mph 1016.9mb 48f
7:20am 2 5 mph 1016.9mb 48f
7:10am 3 9 mph 1016.9mb 48f
7:00am 6 9 mph 1016.9mb 48f
6:50am 5 13 mph 1016.9mb 48f
6:40am 7 14 mph 1016.9mb 48f
6:30am 10 15 mph 1016.6mb 47f
6:20am 11 15 mph 1016.6mb 47f
6:10am 8 13 mph 1016.6mb 47f
6:00am 8 13 mph 1016.6mb 47f
5:50am 6 9 mph 1016.6mb 47f
5:40am 7 10 mph 1016.6mb 47f
5:30am 9 14 mph 1016.3mb 47f
5:20am 9 13 mph 1016.6mb 47f
5:10am 8 11 mph 1016.3mb 46f
5:00am 8 11 mph 1016.3mb 47f
4:50am 6 9 mph 1016.3mb 47f
4:40am 6 10 mph 1016.3mb 48f
4:30am 7 10 mph 1016.3mb 48f
4:20am 3 9 mph 1015.9mb 48f
4:10am 6 11 mph 1015.9mb 48f
4:00am 2 7 mph 1015.9mb 47f
3:50am 3 10 mph 1015.9mb 48f
3:40am 6 9 mph 1016.3mb 47f
3:30am 5 7 mph 1016.3mb 47f
3:20am 5 7 mph 1016.3mb 47f
3:10am 3 6 mph 1016.3mb 47f
3:00am 2 6 mph 1016.3mb 46f
2:50am 2 5 mph 1016.3mb 46f
2:40am 3 5 mph 1016.3mb 46f
2:30am 3 5 mph 1016.3mb 46f
2:20am 2 6 mph 1015.9mb 46f
2:10am 1 5 mph 1016.3mb 46f
2:00am 2 3 mph 1016.3mb 46f
1:50am 1 2 mph 1016.3mb 46f
1:40am 1 2 mph 1016.6mb 46f
1:30am 1 3 mph 1016.6mb 46f
1:20am 1 2 mph 1016.6mb 46f
1:10am  -  2 mph 1016.6mb 46f
1:00am 1 6 mph 1016.6mb 47f
12:50am 2 7 mph 1016.6mb 47f
12:40am  -  3 mph 1016.6mb 47f
12:30am 1 3 mph 1016.9mb 47f
12:20am 1 5 mph 1016.9mb 47f
12:10am 2 3 mph 1016.6mb 47f
12:00am 2 3 mph 1016.6mb 46f
Sun 06/25 11:50pm  -  3 mph 1016.6mb 46f
11:40pm  -  3 mph 1016.9mb 46f
11:30pm 2 5 mph 1016.9mb 46f
11:20pm 2 3 mph 1016.9mb 46f
11:10pm 3 6 mph 1016.9mb 46f
11:00pm 2 3 mph 1016.9mb 46f
10:50pm 2 3 mph 1017.3mb 46f
9:40pm  -  3 mph 1017.6mb 46f
9:30pm 2 6 mph 1017.6mb 47f
9:20pm 2 6 mph 1017.6mb 47f
9:10pm 2 6 mph 1017.6mb 47f
9:00pm 2 5 mph 1017.6mb 47f
8:50pm  -  6 mph 1017.6mb 46f
8:40pm 2 7 mph 1017.6mb 46f
8:30pm 2 7 mph 1017.6mb 47f
8:20pm 3 7 mph 1017.3mb 48f
8:10pm 2 7 mph 1017.3mb 49f
8:00pm 2 6 mph 1017.3mb 49f
7:50pm 1 7 mph 1017.3mb 49f
7:40pm 2 7 mph 1017.3mb 49f
7:30pm 1 6 mph 1017.3mb 49f
7:20pm 1 3 mph 1017.3mb 49f
7:10pm 1 2 mph 1016.9mb 49f
7:00pm  -  1 mph 1016.9mb 49f
6:50pm  -  2 mph 1016.9mb 49f
6:40pm 1 2 mph 1016.9mb 49f
6:30pm 2 3 mph 1016.6mb 50f
6:20pm 3 5 mph 1016.6mb 50f
6:10pm 2 3 mph 1016.6mb 50f
6:00pm 2 5 mph 1016.6mb 50f
5:50pm 3 5 mph 1016.6mb 51f
4:40pm 3 5 mph 1016.6mb 55f
4:30pm 3 5 mph 1016.6mb 56f
4:20pm  -  3 mph 1016.6mb 54f
4:10pm 2 3 mph 1016.9mb 55f
4:00pm 2 5 mph 1016.9mb 54f
3:50pm 2 5 mph 1016.9mb 53f
3:40pm 1 3 mph 1016.9mb 53f
3:30pm 2 3 mph 1016.9mb 53f
3:20pm 2 3 mph 1016.9mb 54f
3:10pm 2 5 mph 1016.9mb 54f
3:00pm 3 5 mph 1016.9mb 54f
2:50pm 3 5 mph 1017.3mb 55f
2:40pm 3 5 mph 1017.3mb 55f
2:30pm 2 3 mph 1016.9mb 54f
2:20pm 2 3 mph 1017.3mb 53f
2:10pm 2 6 mph 1017.3mb 52f
2:00pm 3 5 mph 1017.3mb 52f
1:50pm  -  3 mph 1017.3mb 51f
1:40pm 2 3 mph 1017.3mb 51f
1:30pm 1 3 mph 1017.3mb 51f
1:20pm 2 2 mph 1017.6mb 50f
1:10pm 2 3 mph 1017.6mb 51f
1:00pm  -  3 mph 1017.6mb 49f
12:50pm 2 7 mph 1017.6mb 51f
12:40pm 5 7 mph 1017.6mb 52f
12:30pm 2 5 mph 1017.6mb 52f
12:20pm 3 5 mph 1017.6mb 50f
12:10pm 3 6 mph 1017.6mb 51f
12:00pm 3 6 mph 1017.6mb 50f
11:50am 3 6 mph 1017.6mb 49f
11:40am 5 6 mph 1017.6mb 49f
11:30am 3 7 mph 1017.6mb 49f
11:20am 6 11 mph 1017.3mb 53f
11:10am 6 9 mph 1017.3mb 55f
11:00am 5 9 mph 1017.3mb 55f
10:50am 5 8 mph 1016.9mb 54f
9:40am 2 7 mph 1016.9mb 49f
9:30am 3 6 mph 1016.9mb 49f
9:20am 2 6 mph 1016.9mb 49f
9:10am 2 6 mph 1016.9mb 48f
9:00am  -  2 mph 1016.9mb 47f
8:50am  -  3 mph 1016.9mb 47f
8:40am 1 6 mph 1016.6mb 47f
8:30am 5 6 mph 1016.6mb 47f
8:20am 5 9 mph 1016.6mb 48f
8:10am 6 9 mph 1016.3mb 51f
8:00am 6 9 mph 1015.9mb 52f
7:50am 3 6 mph 1015.9mb 53f
7:40am 2 6 mph 1015.6mb 53f
7:30am 1 7 mph 1015.9mb 53f
7:20am 1 5 mph 1015.6mb 52f
7:10am 5 7 mph 1015.6mb 52f
7:00am 2 6 mph 1015.6mb 51f
6:50am 2 6 mph 1015.6mb 51f
6:40am 2 5 mph 1015.2mb 51f
6:30am 1 5 mph 1015.2mb 51f
6:20am 2 6 mph 1015.2mb 51f
6:10am 3 7 mph 1015.2mb 51f
6:00am 3 6 mph 1015.2mb 50f
5:40am 5 6 mph 1015.6mb 50f
5:30am 2 6 mph 1015.2mb 50f
5:20am 1 5 mph 1015.2mb 50f
5:10am  -  5 mph 1015.2mb 50f
5:00am 2 5 mph 1015.2mb 51f
4:40am 3 7 mph 1015.2mb 51f
4:30am 3 7 mph 1014.9mb 51f
4:20am 2 5 mph 1014.9mb 51f
4:10am 3 6 mph 1014.9mb 51f
4:00am 2 6 mph 1014.6mb 51f
3:50am 3 8 mph 1014.6mb 51f
3:40am 3 7 mph 1014.6mb 50f
3:30am 3 8 mph 1014.6mb 50f
3:20am 5 7 mph 1014.6mb 50f
3:10am 1 6 mph 1014.6mb 50f
3:00am  -  7 mph 1014.6mb 50f
2:50am 3 7 mph 1014.9mb 50f
2:40am 1 5 mph 1014.9mb 49f
2:30am 1 3 mph 1014.9mb 49f
2:20am  -  2 mph 1014.9mb 49f
2:10am  -  2 mph 1014.9mb 48f
2:00am  -  3 mph 1014.9mb 48f
1:50am 2 5 mph 1014.9mb 48f
1:40am  -  5 mph 1014.9mb 48f
1:30am 3 6 mph 1014.9mb 49f
1:20am 2 3 mph 1014.9mb 50f
1:10am  -  3 mph 1014.9mb 50f
1:00am  -  3 mph 1014.9mb 50f
12:50am 1 3 mph 1014.9mb 50f
12:40am  -  2 mph 1014.9mb 50f
12:30am  -  2 mph 1014.9mb 50f
12:20am 1 5 mph 1014.9mb 51f
12:10am  -  2 mph 1014.9mb 51f
12:00am  -  2 mph 1014.9mb 51f
Sat 06/24 11:50pm  -  2 mph 1014.9mb 51f
11:40pm 2 3 mph 1014.9mb 51f
11:30pm 2 3 mph 1014.6mb 51f
11:20pm  -  2 mph 1014.6mb 51f
11:10pm 1 3 mph 1014.2mb 51f
11:00pm 2 5 mph 1014.2mb 51f
10:50pm 1 3 mph 1014.2mb 51f
10:40pm 3 5 mph 1014.2mb 50f
10:30pm 2 3 mph 1014.2mb 50f
10:20pm  -  3 mph 1014.6mb 50f
10:10pm  -  3 mph 1014.6mb 51f
10:00pm 2 3 mph 1014.6mb 52f
9:50pm 1 7 mph 1014.6mb 52f
9:40pm 2 5 mph 1014.6mb 52f
9:30pm 1 3 mph 1014.2mb 52f